Regional Weather Roundup
Issued by NWS

Home | Current Version | Previous Version | Text Only | Print | Product List | Glossary Off
Versions: 1 2 3 4 5 6 7 8 9 10 11 12 13 14 15 16 17 18 19 20 21 22 23 24 25 26 27 28 29 30 31 32 33 34 35 36 37 38 39 40 41 42 43 44 45 46 47 48 49 50

514
ASUS43 KMKX 291921
RWRWI

WISCONSIN REGIONAL WEATHER ROUNDUP
NATIONAL WEATHER SERVICE MILWAUKEE/SULLIVAN WI
200 PM CDT FRI JUL 29 2016

NOTE: "FAIR" INDICATES FEW OR NO CLOUDS BELOW 12,000 FEET WITH NO
SIGNIFICANT WEATHER AND/OR OBSTRUCTIONS TO VISIBILITY.

WIZ001-002-006>008-014>016-023>028-292000-
NORTHWEST WISCONSIN

CITY           SKY/WX    TMP DP  RH WIND       PRES   REMARKS
SUPERIOR ARPT  SUNNY     72  55  55 NE10G16   30.11S
ASHLAND        SUNNY     72  56  57 N14       30.11R
HAYWARD        PTSUNNY   73  54  51 NE6       30.09F
SIREN          MOSUNNY   73  52  46 NE3       30.09
CUMBERLAND     SUNNY     72  50  46 E9        30.08S
RICE LAKE      SUNNY     74  53  48 NE3       30.09S
CHETEK         SUNNY     74  55  50 E5        30.07S
LADYSMITH      SUNNY     76  53  45 CALM      30.08F
EAU CLAIRE     SUNNY     76  55  48 VRB3      30.04F
MENOMONIE      SUNNY     79  49  34 N7        30.05F
NEW RICHMOND   SUNNY     74  49  41 CALM      30.07F
OSCEOLA        SUNNY     74  53  48 NE7       30.11S
$$

WIZ003>005-009-010-017-018-292000-
NORTH CENTRAL WISCONSIN

CITY           SKY/WX    TMP DP  RH WIND       PRES   REMARKS
MANITOWISH WTR SUNNY     72  53  50 SE5       30.09F
ARBOR VITAE    MOSUNNY   74  56  52 E5        30.09F
WOODRUFF       MOSUNNY   74  56  52 E5        30.09F
RHINELANDER    MOSUNNY   75  53  46 SE5       30.09F
EAGLE RIVER    MOSUNNY   72  51  48 CALM      30.09S
LAND O LAKES   PTSUNNY   76  51  41 CALM      30.11R
PHILLIPS       MOSUNNY   74  55  52 CALM      30.07F
TOMAHAWK       MOSUNNY   74  55  51 CALM      30.07F
MEDFORD        PTSUNNY   72  58  62 E5        30.06F
MERRILL        CLOUDY    74  58  56 E8        30.06F
$$

WIZ029-030-035-036-043>047-292000-
CENTRAL WISCONSIN

CITY           SKY/WX    TMP DP  RH WIND       PRES   REMARKS
WAUSAU         CLOUDY    74  59  59 SE10      30.04F
MOSINEE        CLOUDY    73  61  64 E9        30.06F
MARSHFIELD     CLOUDY    74  61  63 E7        30.04S
STEVENS POINT  CLOUDY    69  61  74 NE8       30.05F
WAUPACA        CLOUDY    72  65  79 NE3       30.04S
WAUTOMA        CLOUDY    69  64  84 NE8       30.04S
WISC RAPIDS    CLOUDY    71  61  70 SE7       30.05F
CAMP DOUGLAS   CLOUDY    70  64  83 NE8       30.03S
$$

WIZ011>013-019>022-031-037>040-048>050-292000-
NORTHEAST WISCONSIN

CITY           SKY/WX    TMP DP  RH WIND       PRES   REMARKS
ANTIGO         CLOUDY    73  61  65 SE10      30.08S
SHAWANO        CLOUDY    75  63  65 NE7       30.05F
OCONTO         SUNNY     75  63  65 E9        30.04S
STURGEON BAY   PTSUNNY   75  62  64 NE9       30.05F
GREEN BAY      CLOUDY    72  66  81 NE9       30.03F
MANITOWOC      CLOUDY    72  62  71 VRB6      30.03S
APPLETON       PTSUNNY   73  61  64 NE9       30.02S
CLINTONVILLE   CLOUDY    72  61  68 E7        30.04S
OSHKOSH        LGT RAIN  71  64  78 E7        30.02S
$$

WIZ032>034-041-042-053>061-292000-
SOUTHWEST WISCONSIN

CITY           SKY/WX    TMP DP  RH WIND       PRES   REMARKS
LA CROSSE      CLOUDY    76  63  64 NE3       30.01F
SPARTA         CLOUDY    73  64  72 E8        30.03S
VIROQUA        CLOUDY    71  64  79 NE5       30.03S
BOSCOBEL       LGT RAIN  67  64  90 N5        30.01S
PRAIRIE DU CHI CLOUDY    66  62  87 CALM      30.00S
PLATTEVILLE    CLOUDY    70  68  94 NE10      29.99S
$$

WIZ056-057-062-063-064-067-068-292000-
SOUTH CENTRAL WISCONSIN

CITY           SKY/WX    TMP DP  RH WIND       PRES   REMARKS
REEDSBURG      CLOUDY    68  65  90 NE5       30.01S
BARABOO/DELLS  CLOUDY    68  64  85 NE3       30.02S
LONE ROCK      LGT RAIN  66  64  93 N3        30.01S
MINERAL POINT  CLOUDY    70  66  88 NE7       30.01S
MADISON        CLOUDY    71  65  81 NE10      29.98F
MIDDLETON      CLOUDY    71  67  88 E5        30.00S
WATERTOWN      CLOUDY    73  67  83 NE10      29.98F
MONROE         CLOUDY    73  68  83 N10       29.96F
JANESVILLE     PTSUNNY   77  66  69 NE9       29.95S
$$

WIZ051-052-058>065-066-070>072-292000-
SOUTHEAST WISCONSIN

CITY           SKY/WX    TMP DP  RH WIND       PRES   REMARKS
MILWAUKEE      CLOUDY    74  66  76 NE13G20   29.98S
WAUKESHA       CLOUDY    70  63  78 NE12      30.00S
MILWAUKEE/TIMM PTSUNNY   72  63  73 NE12      30.00F
RACINE         PTSUNNY   75  66  73 NE13      29.98F
BURLINGTON     CLOUDY    75  66  73 NE10      29.96F
KENOSHA        CLOUDY    76  66  71 E14       29.95F
FOND DU LAC    CLOUDY    73  65  75 E9        30.02F
SHEBOYGAN      PTSUNNY   73  63  70 NE13      30.02F
WEST BEND      DRIZZLE   68  63  83 NE7       30.00F
JUNEAU         LGT RAIN  67  65  93 N5        30.02S
$$

LSZ147-162-292000-
LAKE SUPERIOR

STATION/POSITION TIME  TEMP    WIND        PRES    WAVE
                       AIR SEA DIR/SP/G            HT/PER
                 (UTC) (F)     (DEG/KT/KT) (MB)    (FT/S)
W MID LAKE BUOY  1850   63 62   50/  6/  8 1019.1R   0
DEVILS ISLAND    1900   64      40/  5/  6 1019.9R
PORT WING        1800   62      20/  8/  9 1019.3F
SAXON HARBOR     1800   67      20/  5/  7 1019.3
$$

LMZ867-665-643>646-292000-
LAKE MICHIGAN

STATION/POSITION TIME  TEMP    WIND        PRES    WAVE
                       AIR SEA DIR/SP/G            HT/PER
                 (UTC) (F)     (DEG/KT/KT) (MB)    (FT/S)
CHAMBERS ISLAND  1800   71      50/  7/ 11 1017.9R
S GREEN BAY BUOY 1800   71 71   40/ 10/ 10 1016.9
N MID LAKE BUOY  1850   69 70   40/ 12/ 14 1017.6R   1/ 3
NORTHPORT PIER   1800   72      70/ 10/ 13 1017.9S
SISTER BAY       1821   79     130/  9/ 14   N/A
ALGOMA LAKESHORE 1813           80/ 13/ 16   N/A
KEWAUNEE LAKESHO 1800   70      20/  3/  6 1016.9F
SHEBOYGAN LAKESH 1900   64     360/ 13/ 13 1016.6F
PORT WASHINGTON  1800   71      40/ 10/ 12 1016.9
ATWATER BUOY     1900   64 61   10/ 10/ 12 1017.0F
MILWAUKEE LAKESH 1810   67      20/ 11/ 12   N/A
S MID LAKE BUOY  1850   72 74   70/ 14/ 16 1013.5F   3/ 4
KENOSHA   LAKESH 1900   71      50/ 11/ 12 1013.5F
$$

TC  - TEMPERATURE IN CELSIUS
VSB - VISIBILITY IN STATUTE MILES
WCI - WIND CHILL INDEX
HX  - HEAT INDEX





USA.gov is the U.S. government's official web portal to all federal, state and local government web resources and services.